WAT429 MMMX-MMPR

Flight info

Callsign WAT429
Flight time 0h 59m
Altitude 38000
Route SEBO3A/05L SEBON UT124 GDL UJ14N NOTUP NOTUP1B
Aircraft B78X/H-SDE1E2E3FGHIJ2J3J4J5M1RWXY/LB1D1

Departure

Time 2026-04-17 04:04
Airport Mexico City Benito Juárez International Airport (MMMX)

Arrival

Time 2026-04-17 05:04
Airport Puerto Vallarta International Airport (MMPR)
Time Latitude Longitude Altitude Speed Heading
2026-04-17 02:52 19.43584 -99.07992 7357 ft 0 kts 328°
2026-04-17 02:59 19.43583 -99.07992 7357 ft 0 kts 328°
2026-04-17 03:22 19.43584 -99.07992 7357 ft 0 kts 328°
2026-04-17 03:43 19.43573 -99.07985 7357 ft 2 kts 328°
2026-04-17 03:43 19.43564 -99.07979 7357 ft 0 kts 328°
2026-04-17 03:43 19.43552 -99.07970 7357 ft 2 kts 317°
2026-04-17 03:44 19.43543 -99.07958 7356 ft 2 kts 301°
2026-04-17 03:44 19.43536 -99.07945 7356 ft 2 kts 288°
2026-04-17 03:44 19.43533 -99.07928 7356 ft 2 kts 274°
2026-04-17 03:44 19.43533 -99.07913 7356 ft 2 kts 261°
2026-04-17 03:45 19.43538 -99.07898 7356 ft 2 kts 246°
2026-04-17 03:45 19.43542 -99.07889 7355 ft 0 kts 239°
2026-04-17 03:52 19.43541 -99.07890 7355 ft 1 kts 239°
2026-04-17 03:52 19.43518 -99.07931 7356 ft 11 kts 239°
2026-04-17 03:53 19.43472 -99.08012 7357 ft 12 kts 239°
2026-04-17 03:53 19.43432 -99.08083 7358 ft 9 kts 239°
2026-04-17 03:53 19.43401 -99.08139 7359 ft 8 kts 239°
2026-04-17 03:53 19.43369 -99.08196 7359 ft 10 kts 239°
2026-04-17 03:54 19.43325 -99.08274 7359 ft 13 kts 239°
2026-04-17 03:54 19.43270 -99.08375 7359 ft 17 kts 240°
2026-04-17 03:54 19.43205 -99.08493 7359 ft 19 kts 239°
2026-04-17 03:54 19.43138 -99.08611 7357 ft 18 kts 239°
2026-04-17 03:55 19.43077 -99.08720 7356 ft 16 kts 239°
2026-04-17 03:55 19.43023 -99.08816 7355 ft 14 kts 239°
2026-04-17 03:55 19.42977 -99.08897 7354 ft 0 kts 239°
2026-04-17 03:55 19.42976 -99.08898 7354 ft 0 kts 239°
2026-04-17 03:57 19.42976 -99.08899 7354 ft 0 kts 239°
2026-04-17 03:57 19.42966 -99.08916 7353 ft 5 kts 239°
2026-04-17 03:57 19.42939 -99.08965 7352 ft 8 kts 239°
2026-04-17 03:58 19.42911 -99.08998 7351 ft 0 kts 214°
2026-04-17 04:02 19.42908 -99.09000 7351 ft 1 kts 214°
2026-04-17 04:02 19.42879 -99.09011 7351 ft 6 kts 183°
2026-04-17 04:02 19.42830 -99.08995 7350 ft 7 kts 153°
2026-04-17 04:02 19.42813 -99.08968 7350 ft 3 kts 77°
2026-04-17 04:03 19.42817 -99.08956 7351 ft 0 kts 63°
2026-04-17 04:03 19.42867 -99.08860 7353 ft 39 kts 60°
2026-04-17 04:04 19.43121 -99.08405 7359 ft 105 kts 59°
2026-04-17 04:04 19.43604 -99.07542 7353 ft 167 kts 59°
2026-04-17 04:04 19.44289 -99.06386 7813 ft 191 kts 56°
2026-04-17 04:04 19.44984 -99.05192 8667 ft 192 kts 61°
2026-04-17 04:05 19.45627 -99.03916 9350 ft 205 kts 60°
2026-04-17 04:05 19.46390 -99.02570 9930 ft 218 kts 58°
2026-04-17 04:05 19.47182 -99.01157 10161 ft 231 kts 59°
2026-04-17 04:05 19.48053 -98.99613 10380 ft 254 kts 58°
2026-04-17 04:06 19.49006 -98.97924 10792 ft 273 kts 59°
2026-04-17 04:06 19.49908 -98.96190 11738 ft 273 kts 62°
2026-04-17 04:06 19.50678 -98.94356 12641 ft 275 kts 68°
2026-04-17 04:06 19.51290 -98.92419 13421 ft 278 kts 72°
2026-04-17 04:07 19.51684 -98.90409 14155 ft 282 kts 84°
2026-04-17 04:07 19.51225 -98.88416 14703 ft 294 kts 130°
2026-04-17 04:07 19.49439 -98.87431 15315 ft 300 kts 170°
2026-04-17 04:07 19.47366 -98.87649 15992 ft 300 kts 203°
2026-04-17 04:08 19.45721 -98.88972 16661 ft 297 kts 234°
2026-04-17 04:08 19.44680 -98.90817 16965 ft 294 kts 246°
2026-04-17 04:08 19.43842 -98.92808 16926 ft 297 kts 247°
2026-04-17 04:08 19.42921 -98.94836 16969 ft 319 kts 243°
2026-04-17 04:09 19.41749 -98.96986 17019 ft 353 kts 239°
2026-04-17 04:09 19.40320 -98.99290 17058 ft 388 kts 238°
2026-04-17 04:09 19.38906 -99.01763 17071 ft 398 kts 242°
2026-04-17 04:09 19.37604 -99.04436 17461 ft 414 kts 245°
2026-04-17 04:10 19.36433 -99.07240 18559 ft 417 kts 248°
2026-04-17 04:10 19.35389 -99.10132 19621 ft 421 kts 251°
2026-04-17 04:10 19.34516 -99.13074 20543 ft 426 kts 255°
2026-04-17 04:10 19.33792 -99.16139 21471 ft 432 kts 257°
2026-04-17 04:11 19.33261 -99.19263 22377 ft 436 kts 261°
2026-04-17 04:11 19.32888 -99.22505 23260 ft 442 kts 264°
2026-04-17 04:11 19.32692 -99.25746 24101 ft 447 kts 267°
2026-04-17 04:11 19.32666 -99.29068 24926 ft 452 kts 270°
2026-04-17 04:12 19.32811 -99.32391 25703 ft 458 kts 273°
2026-04-17 04:12 19.33130 -99.35761 26455 ft 464 kts 276°
2026-04-17 04:12 19.33625 -99.39150 27200 ft 470 kts 278°
2026-04-17 04:12 19.34213 -99.42578 27957 ft 473 kts 277°
2026-04-17 04:13 19.34648 -99.46011 28871 ft 471 kts 275°
2026-04-17 04:13 19.35037 -99.49417 29263 ft 463 kts 276°
2026-04-17 04:13 19.35490 -99.52877 29228 ft 474 kts 276°
2026-04-17 04:13 19.35979 -99.56377 29210 ft 487 kts 278°
2026-04-17 04:14 19.36558 -99.59937 29203 ft 486 kts 277°
2026-04-17 04:14 19.37496 -99.67020 29232 ft 483 kts 274°
2026-04-17 04:15 19.37918 -99.74089 29232 ft 480 kts 269°
2026-04-17 04:15 19.37642 -99.81117 29552 ft 485 kts 263°
2026-04-17 04:15 19.37222 -99.84683 30408 ft 482 kts 260°
2026-04-17 04:16 19.36708 -99.88166 31334 ft 479 kts 260°
2026-04-17 04:16 19.36335 -99.91638 32199 ft 477 kts 263°
2026-04-17 04:16 19.36093 -99.95147 33023 ft 474 kts 264°
2026-04-17 04:16 19.35857 -99.98628 33815 ft 472 kts 264°
2026-04-17 04:17 19.35648 -100.02113 34567 ft 470 kts 264°
2026-04-17 04:17 19.35576 -100.05582 35257 ft 469 kts 267°
2026-04-17 04:17 19.35679 -100.09010 35916 ft 468 kts 270°
2026-04-17 04:17 19.35955 -100.12465 36532 ft 469 kts 272°
2026-04-17 04:18 19.36378 -100.15893 37076 ft 470 kts 274°
2026-04-17 04:18 19.36928 -100.19308 37576 ft 471 kts 277°
2026-04-17 04:18 19.37652 -100.22712 38030 ft 473 kts 279°
2026-04-17 04:19 19.39574 -100.29346 38063 ft 472 kts 285°
2026-04-17 04:19 19.42115 -100.35804 38073 ft 476 kts 288°
2026-04-17 04:20 19.44446 -100.42335 38063 ft 474 kts 285°
2026-04-17 04:20 19.46642 -100.48913 38044 ft 473 kts 284°
2026-04-17 04:21 19.48816 -100.55513 38058 ft 473 kts 284°
2026-04-17 04:21 19.50982 -100.62115 38086 ft 473 kts 284°
2026-04-17 04:22 19.53154 -100.68743 38126 ft 473 kts 284°
2026-04-17 04:22 19.55321 -100.75313 38156 ft 473 kts 285°
2026-04-17 04:23 19.57589 -100.81924 38164 ft 473 kts 285°
2026-04-17 04:23 19.59832 -100.88504 38169 ft 473 kts 285°
2026-04-17 04:24 19.62072 -100.95089 38165 ft 473 kts 285°
2026-04-17 04:24 19.64306 -101.01666 38162 ft 473 kts 285°
2026-04-17 04:25 19.66527 -101.08212 38179 ft 473 kts 284°
2026-04-17 04:25 19.68772 -101.14839 38196 ft 473 kts 284°
2026-04-17 04:26 19.71000 -101.21424 38211 ft 473 kts 284°
2026-04-17 04:26 19.73224 -101.28009 38226 ft 473 kts 284°
2026-04-17 04:27 19.75437 -101.34565 38236 ft 473 kts 284°
2026-04-17 04:27 19.77676 -101.41209 38241 ft 472 kts 284°
2026-04-17 04:28 19.79887 -101.47782 38243 ft 472 kts 284°
2026-04-17 04:28 19.82081 -101.54313 38237 ft 472 kts 284°
2026-04-17 04:29 19.84294 -101.60907 38212 ft 472 kts 284°
2026-04-17 04:29 19.86502 -101.67499 38193 ft 472 kts 284°
2026-04-17 04:30 19.88725 -101.74140 38180 ft 471 kts 284°
2026-04-17 04:30 19.90916 -101.80697 38180 ft 471 kts 283°
2026-04-17 04:31 19.93108 -101.87266 38187 ft 471 kts 283°
2026-04-17 04:31 19.95311 -101.93877 38194 ft 471 kts 283°
2026-04-17 04:32 19.97492 -102.00433 38190 ft 471 kts 283°
2026-04-17 04:32 19.99666 -102.06976 38178 ft 471 kts 283°
2026-04-17 04:33 20.01863 -102.13595 38162 ft 471 kts 283°
2026-04-17 04:33 20.04038 -102.20158 38150 ft 471 kts 283°
2026-04-17 04:34 20.07300 -102.30019 38138 ft 471 kts 283°
2026-04-17 04:34 20.09480 -102.36619 38138 ft 471 kts 283°
2026-04-17 04:35 20.11653 -102.43208 38125 ft 470 kts 283°
2026-04-17 04:35 20.13837 -102.49841 38123 ft 470 kts 283°
2026-04-17 04:36 20.16008 -102.56444 38119 ft 470 kts 283°
2026-04-17 04:36 20.18172 -102.63032 38117 ft 469 kts 283°
2026-04-17 04:37 20.20513 -102.69586 38124 ft 473 kts 287°
2026-04-17 04:37 20.23493 -102.75932 38121 ft 478 kts 293°
2026-04-17 04:38 20.26868 -102.82037 38118 ft 477 kts 293°
2026-04-17 04:38 20.30128 -102.88223 38120 ft 476 kts 292°
2026-04-17 04:39 20.33349 -102.94409 38123 ft 475 kts 292°
2026-04-17 04:39 20.36545 -103.00571 38127 ft 475 kts 292°
2026-04-17 04:40 20.39753 -103.06764 38129 ft 475 kts 292°
2026-04-17 04:40 20.42949 -103.12942 38130 ft 475 kts 292°
2026-04-17 04:41 20.46163 -103.19160 38130 ft 474 kts 292°
2026-04-17 04:41 20.49356 -103.25346 38130 ft 474 kts 292°
2026-04-17 04:42 20.52407 -103.31551 38131 ft 471 kts 289°
2026-04-17 04:42 20.54864 -103.37982 38133 ft 466 kts 283°
2026-04-17 04:43 20.57097 -103.44494 38134 ft 467 kts 284°
2026-04-17 04:43 20.59373 -103.50977 38136 ft 466 kts 284°
2026-04-17 04:44 20.61661 -103.57462 38135 ft 466 kts 284°
2026-04-17 04:44 20.63955 -103.63968 38053 ft 466 kts 284°
2026-04-17 04:45 20.66261 -103.70513 37976 ft 467 kts 284°
2026-04-17 04:45 20.68537 -103.76981 37967 ft 466 kts 284°
2026-04-17 04:46 20.70819 -103.83476 37954 ft 466 kts 284°
2026-04-17 04:46 20.73097 -103.89965 37944 ft 466 kts 284°
2026-04-17 04:47 20.75382 -103.96485 37933 ft 466 kts 284°
2026-04-17 04:47 20.77655 -104.02979 37927 ft 466 kts 284°
2026-04-17 04:48 20.79914 -104.09441 37934 ft 466 kts 284°
2026-04-17 04:48 20.82190 -104.15956 37939 ft 466 kts 284°
2026-04-17 04:49 20.84138 -104.22487 37943 ft 461 kts 278°
2026-04-17 04:49 20.85432 -104.29149 37943 ft 454 kts 273°
2026-04-17 04:50 20.85839 -104.32452 37667 ft 445 kts 270°
2026-04-17 04:50 20.86087 -104.35767 36879 ft 443 kts 267°
2026-04-17 04:50 20.86162 -104.39011 35999 ft 442 kts 264°
2026-04-17 04:50 20.86150 -104.42316 35074 ft 443 kts 265°
2026-04-17 04:51 20.86222 -104.45451 33671 ft 444 kts 266°
2026-04-17 04:51 20.86322 -104.48714 31927 ft 447 kts 266°
2026-04-17 04:51 20.86242 -104.51946 13606 ft 421 kts 264°
2026-04-17 04:51 20.86231 -104.54971 10674 ft 439 kts 265°
2026-04-17 04:52 20.86430 -104.57686 11114 ft 337 kts 271°
2026-04-17 04:52 20.86762 -104.60279 10485 ft 374 kts 275°
2026-04-17 04:52 20.87305 -104.63099 10993 ft 399 kts 279°
2026-04-17 04:52 20.88024 -104.65905 11314 ft 373 kts 284°
2026-04-17 04:53 20.88860 -104.68483 10994 ft 359 kts 289°
2026-04-17 04:53 20.89821 -104.70905 10254 ft 362 kts 294°
2026-04-17 04:53 20.90973 -104.73274 10032 ft 345 kts 299°
2026-04-17 04:55 20.96396 -104.87474 8465 ft 281 kts 272°
2026-04-17 04:55 20.96014 -104.89500 8081 ft 278 kts 243°
2026-04-17 04:55 20.94835 -104.91051 8086 ft 260 kts 227°
2026-04-17 04:56 20.93605 -104.92416 7998 ft 249 kts 228°
2026-04-17 04:56 20.92435 -104.93871 7265 ft 266 kts 233°
2026-04-17 04:56 20.91375 -104.95405 7195 ft 250 kts 236°
2026-04-17 04:56 20.90466 -104.96929 6957 ft 242 kts 242°
2026-04-17 04:57 20.89711 -104.98558 6573 ft 242 kts 247°
2026-04-17 04:57 20.89134 -105.00235 6199 ft 240 kts 253°
2026-04-17 04:57 20.88719 -105.01946 5829 ft 239 kts 259°
2026-04-17 04:57 20.88504 -105.03716 5461 ft 237 kts 264°
2026-04-17 04:58 20.88104 -105.05402 5074 ft 236 kts 248°
2026-04-17 04:58 20.87215 -105.06878 4703 ft 235 kts 227°
2026-04-17 04:58 20.85885 -105.07884 4431 ft 231 kts 208°
2026-04-17 04:58 20.84434 -105.08463 4329 ft 215 kts 201°
2026-04-17 04:59 20.83155 -105.09038 4418 ft 187 kts 208°
2026-04-17 04:59 20.82039 -105.09699 4180 ft 180 kts 213°
2026-04-17 04:59 20.80998 -105.10469 3857 ft 178 kts 221°
2026-04-17 04:59 20.80112 -105.11365 3762 ft 171 kts 226°
2026-04-17 05:00 20.79315 -105.12302 3599 ft 171 kts 233°
2026-04-17 05:00 20.78544 -105.13310 3314 ft 179 kts 229°
2026-04-17 05:00 20.77710 -105.14272 3232 ft 174 kts 228°
2026-04-17 05:00 20.76880 -105.15239 3016 ft 177 kts 227°
2026-04-17 05:01 20.76080 -105.16204 2764 ft 171 kts 229°
2026-04-17 05:01 20.75272 -105.17109 2484 ft 164 kts 226°
2026-04-17 05:01 20.74504 -105.18002 2133 ft 161 kts 228°
2026-04-17 05:01 20.73716 -105.18851 1789 ft 157 kts 225°
2026-04-17 05:02 20.72980 -105.19637 1629 ft 142 kts 230°
2026-04-17 05:02 20.72348 -105.20428 1396 ft 137 kts 231°
2026-04-17 05:02 20.71698 -105.21175 1117 ft 138 kts 227°
2026-04-17 05:02 20.71028 -105.21909 828 ft 139 kts 227°
2026-04-17 05:03 20.70367 -105.22677 544 ft 139 kts 230°
2026-04-17 05:03 20.69739 -105.23435 326 ft 133 kts 227°
2026-04-17 05:03 20.69108 -105.24144 110 ft 128 kts 230°
2026-04-17 05:03 20.68538 -105.24815 56 ft 114 kts 227°
2026-04-17 05:04 20.68098 -105.25316 52 ft 38 kts 227°
2026-04-17 05:04 20.67986 -105.25447 51 ft 12 kts 228°
2026-04-17 05:04 20.67928 -105.25513 50 ft 11 kts 224°
2026-04-17 05:04 20.67870 -105.25567 50 ft 10 kts 217°
2026-04-17 05:05 20.67816 -105.25603 50 ft 8 kts 207°
2026-04-17 05:05 20.67768 -105.25624 49 ft 6 kts 199°
2026-04-17 05:05 20.67732 -105.25636 49 ft 4 kts 196°
2026-04-17 05:05 20.67701 -105.25645 49 ft 5 kts 196°
2026-04-17 05:06 20.67659 -105.25658 49 ft 6 kts 191°
2026-04-17 05:06 20.67618 -105.25643 49 ft 6 kts 116°
2026-04-17 05:06 20.67630 -105.25597 50 ft 6 kts 53°
2026-04-17 05:06 20.67671 -105.25547 50 ft 12 kts 47°
2026-04-17 05:07 20.67743 -105.25467 50 ft 16 kts 47°
2026-04-17 05:07 20.67824 -105.25375 51 ft 17 kts 47°
2026-04-17 05:07 20.67908 -105.25279 52 ft 18 kts 47°
2026-04-17 05:07 20.67996 -105.25178 52 ft 18 kts 47°
2026-04-17 05:08 20.68081 -105.25076 53 ft 16 kts 47°
2026-04-17 05:08 20.68128 -105.25021 54 ft 8 kts 47°
2026-04-17 05:08 20.68162 -105.24983 54 ft 6 kts 47°
2026-04-17 05:08 20.68192 -105.24948 55 ft 7 kts 47°
2026-04-17 05:09 20.68238 -105.24895 55 ft 12 kts 47°
2026-04-17 05:09 20.68289 -105.24817 56 ft 12 kts 90°
2026-04-17 05:09 20.68247 -105.24745 57 ft 10 kts 132°
2026-04-17 05:09 20.68203 -105.24696 57 ft 8 kts 135°
2026-04-17 05:10 20.68166 -105.24657 57 ft 6 kts 136°
2026-04-17 05:10 20.68135 -105.24639 58 ft 3 kts 179°
2026-04-17 05:10 20.68118 -105.24649 58 ft 2 kts 224°
2026-04-17 05:10 20.68112 -105.24655 58 ft 0 kts 225°
2026-04-17 05:11 20.68110 -105.24657 58 ft 1 kts 224°
2026-04-17 05:11 20.68094 -105.24675 58 ft 2 kts 225°
2026-04-17 05:11 20.68093 -105.24676 58 ft 0 kts 225°